Tracking 28790 objects as of 19-Apr-2024
HD Live streaming from Space Station
objects crossing your sky now

THOR ABLESTAR R/B

Track THOR ABLESTAR R/B now!
10-day predictions


NORAD ID: 1508
Int'l Code: 1965-065B
Perigee: 1,098.8 km
Apogee: 1,163.7 km
Inclination: 90.2 °
Period: 107.8 minutes
Semi major axis: 7502 km
RCS: 3.6973 m2 (large)
Launch date: August 13, 1965
Source: United States (US)
Launch site: AIR FORCE WESTERN TEST RANGE (AFWTR)

Note: This is a ROCKET BODY
Your satellite tracking list
Your tracking list is empty




NASA's NSSDC Master Catalog

Two Line Element Set (TLE):
1 01508U 65065B   24109.93823986  .00000090  00000-0  15864-3 0  9996
2 01508  90.1557 296.3537 0043233  40.4475  81.7293 13.36029056860028
Source of the keplerian elements: AFSPC